Regional Weather Roundup
Issued by NWS

Home | Current Version | Previous Version | Graphics & Text | Print | Product List | Glossary On
Versions: 1 2 3 4 5 6 7 8 9 10 11 12 13 14 15 16 17 18 19 20 21 22 23 24 25 26 27 28 29 30 31 32 33 34 35 36 37 38 39 40 41 42 43 44 45 46 47 48 49 50
000
ASUS43 KMKX 250700
RWRWI

WISCONSIN REGIONAL WEATHER ROUNDUP
NATIONAL WEATHER SERVICE MILWAUKEE/SULLIVAN WI
100 AM CST SAT NOV 25 2017

NOTE: "FAIR" INDICATES FEW OR NO CLOUDS BELOW 12,000 FEET WITH NO
SIGNIFICANT WEATHER AND/OR OBSTRUCTIONS TO VISIBILITY.

WIZ001-002-006>008-014>016-023>028-250800-
NORTHWEST WISCONSIN

CITY           SKY/WX    TMP DP  RH WIND       PRES   REMARKS
SUPERIOR ARPT  CLOUDY    39  30  69 W16       29.66R WCI  30
ASHLAND        CLOUDY    39  32  76 W12       29.62R WCI  32
HAYWARD        PTCLDY    38  29  70 W12G20    29.66R WCI  30
SIREN          CLEAR     36  31  83 W8        29.72R WCI  29
CUMBERLAND     CLEAR     34  32  93 W10       29.70S WCI  26
RICE LAKE      CLEAR     35  32  90 W5        29.71S WCI  31
CHETEK         CLEAR     36  33  88 W7        29.70S WCI  30
LADYSMITH      CLEAR     37  32  83 W13       29.68R WCI  28
EAU CLAIRE     NOT AVBL
MENOMONIE      CLEAR     37  33  84 W8        29.73R WCI  31
NEW RICHMOND   PTCLDY    38  31  77 W12       29.74S WCI  30
OSCEOLA        PTCLDY    39  32  77 W10       29.77S WCI  32
$$

WIZ003>005-009-010-017-018-250800-
NORTH CENTRAL WISCONSIN

CITY           SKY/WX    TMP DP  RH WIND       PRES   REMARKS
MANITOWISH WTR CLOUDY    36  34  92 W10G18    29.58R WCI  28
ARBOR VITAE    CLOUDY    39  35  84 W12G17    29.58R WCI  32
WOODRUFF       CLOUDY    39  35  84 W12G17    29.58R WCI  32
RHINELANDER    CLOUDY    38  33  82 W14G22    29.58R WCI  30
EAGLE RIVER    CLOUDY    37  32  82 W12G17    29.55S WCI  29
LAND O LAKES   LGT SNOW  36  33  88 NW16G24   29.57R WCI  26
PHILLIPS       CLOUDY    37  32  84 W8        29.62S WCI  30
TOMAHAWK       CLOUDY    38  31  77 W10G18    29.61R WCI  31
MEDFORD        CLOUDY    37  31  79 W9        29.64R WCI  30
MERRILL        CLOUDY    40  32  75 NW10      29.62R WCI  33
$$

WIZ029-030-035-036-043>047-250800-
CENTRAL WISCONSIN

CITY           SKY/WX    TMP DP  RH WIND       PRES   REMARKS
WAUSAU         CLOUDY    40  32  73 W14       29.62R WCI  32
MOSINEE        MOCLDY    37  34  87 W12       29.64S WCI  30
MARSHFIELD     PTCLDY    38  32  79 W12       29.65R WCI  30
STEVENS POINT  CLOUDY    39  33  76 W5        29.64S
WAUPACA        CLEAR     44  36  72 W8        29.64R
WAUTOMA        CLOUDY    42  35  76 W8        29.66S
WISC RAPIDS    CLOUDY    42  35  76 NW13G22   29.68R
CAMP DOUGLAS   CLEAR     39  35  87 W9        29.70R WCI  32
$$

WIZ011>013-019>022-031-037>040-048>050-250800-
NORTHEAST WISCONSIN

CITY           SKY/WX    TMP DP  RH WIND       PRES   REMARKS
ANTIGO         CLOUDY    37  33  84 W9        29.59S WCI  31
SHAWANO        PTCLDY    43  35  73 W7        29.61R
OCONTO         MOCLDY    43  32  66 NW10G18   29.59R
STURGEON BAY   CLOUDY    43  34  70 NW15      29.58R
GREEN BAY      MOCLDY    43  38  82 NW12      29.61R
MANITOWOC      CLOUDY    46  37  71 NW20G26   29.61R
APPLETON       CLOUDY    43  36  75 NW12      29.60R
CLINTONVILLE   MOCLDY    43  36  75 NW12G17   29.62R
OSHKOSH        PTCLDY    44  36  73 NW14G23   29.63R
$$

WIZ032>034-041-042-053>061-250800-
SOUTHWEST WISCONSIN

CITY           SKY/WX    TMP DP  RH WIND       PRES   REMARKS
LA CROSSE      CLEAR     40  34  79 W7        29.75R
SPARTA         CLEAR     42  34  74 W8        29.73S
VIROQUA        CLEAR     40  35  83 NW8       29.73R WCI  34
BOSCOBEL       CLEAR     45  34  65 W7        29.76R
PRAIRIE DU CHI CLEAR     42  32  67 NW5       29.77R
PLATTEVILLE    CLEAR     43  39  86 NW15G21   29.74R
$$

WIZ056-057-062-063-064-067-068-250800-
SOUTH CENTRAL WISCONSIN

CITY           SKY/WX    TMP DP  RH WIND       PRES   REMARKS
REEDSBURG      PTCLDY    43  35  72 NW13G24   29.70R
BARABOO/DELLS  PTCLDY    43  35  71 NW15G21   29.69R
LONE ROCK      NOT AVBL
MINERAL POINT  CLEAR     45  41  87 NW13      29.72R
MADISON        PTCLDY    46  37  71 NW10      29.69R
MIDDLETON      PTCLDY    47  38  71 NW13G22   29.69R
WATERTOWN      MOCLDY    45  39  80 W9G21     29.66R
MONROE         PTCLDY    45  37  76 NW20G30   29.69R
JANESVILLE     PTCLDY    46  37  71 NW12G18   29.68R
$$

WIZ051-052-058>065-066-070>072-250800-
SOUTHEAST WISCONSIN

CITY           SKY/WX    TMP DP  RH WIND       PRES   REMARKS
MILWAUKEE      MOCLDY    51  41  68 NW13      29.64R
WAUKESHA       CLOUDY    45  37  76 NW17G26   29.65R
MILWAUKEE/TIMM CLOUDY    46  36  66 NW22G31   29.63R
RACINE         MOCLDY    50  41  71 NW20G32   29.65R
BURLINGTON     MOCLDY    51  45  78 NW20G30   29.65R
KENOSHA        PTCLDY    50  40  68 NW15G29   29.64R
FOND DU LAC    CLOUDY    46  35  65 NW16G23   29.64R
SHEBOYGAN      CLOUDY    46  40  79 NW10      29.62R
WEST BEND      CLOUDY    45  39  81 NW12G18   29.63R
JUNEAU         CLOUDY    44  36  72 NW10G18   29.66R
$$

LSZ147-162-250800-
LAKE SUPERIOR

STATION/POSITION TIME  TEMP    WIND        PRES    WAVE
                       AIR SEA DIR/SP/G            HT/PER
                 (UTC) (F)     (DEG/KT/KT) (MB)    (FT/S)
DEVILS ISLAND    0600   41     260/ 20/ 23 1001.5R
SAXON HARBOR     0640   40     230/  5/  9 1002.4R
$$

LMZ867-665-643>646-250800-
LAKE MICHIGAN

STATION/POSITION TIME  TEMP    WIND        PRES    WAVE
                       AIR SEA DIR/SP/G            HT/PER
                 (UTC) (F)     (DEG/KT/KT) (MB)    (FT/S)
N MID LAKE BUOY  0550   46 47  290/ 19/ 23  999.3R   5/ 8
NORTHPORT PIER   0640   44     310/ 18/ 25 1000.7R
KEWAUNEE LAKESHO 0630   45     310/  8/ 13 1000.7R
SHEBOYGAN LAKESH 0600   49     300/ 19/ 26 1001.7R
PORT WASHINGTON  0640   49     310/  9/ 25 1003.7R
MILWAUKEE LAKESH 0630   50     320/ 13/ 17   N/A
S MID LAKE BUOY  0550   50 47  330/ 14/ 16 1001.3R   4/ 6
KENOSHA   LAKESH 0600   54     300/ 13/ 23 1002.4
$$

TC  - TEMPERATURE IN CELSIUS
VSB - VISIBILITY IN STATUTE MILES
WCI - WIND CHILL INDEX
HX  - HEAT INDEX




USA.gov is the U.S. government's official web portal to all federal, state and local government web resources and services.